星链-2330 (STARLINK-2330 )

导读 | 豆包AI

STARLINK-2330是美国SpaceX星链星座的成员卫星,于2021年3月14日发射入轨,属于星链项目大规模部署阶段的卫星。星链计划是美国打造全球低轨互联网星座的项目,旨在提供全球覆盖的高速卫星宽带服务,同时具备潜在军事应用价值。该卫星的发射,推进了星链星座近地轨道组网进程,助力SpaceX逐步实现全球无缝天基通信覆盖的目标。

基本信息
目录编号:
47874
目录名称:
STARLINK-2330
国际标识:
2021-021Q
轨道中心:
EARTH
卫星名称:
星链-2330
卫星全名:
星链-2330 (STARLINK-2330 )
卫星状态:
在轨 (已飞行1826 天)
发射日期:
2021-03-14 UTC
国别 :
美国 (US)
星等 :
--
轨道信息
数据来源 国际轨道数据
星历时间: 2026-03-14T08:00:02+0800
13小时前
查看轨道信息
半长轴: 6874.866km
偏心率: 0.0001031
轨道倾角: 53.127°
近地点辐角 81.309°
升交点赤经 196.534°
平近点角 290.100°
近地点: 496.02km
远地点: 497.438km
周期: 94.549分钟
每日圈数: 15.230231
详细信息
固有亮度:
5
最大亮度:
2.5
卫星平台:
Starlink V1.0
覆盖范围:
全球
运营商:
太空探索技术公司
运营商所在国:
美国
制造商(研发单位):
太空探索技术公司
制造商所在国:
美国
使用方式:
暂无
卫星简介
星链(Starlink)计划是由太空探索技术公司(SpaceX)提出的一个巨型低轨卫星互联网星座项目,计划在2019年至2024年间在太空搭建由约1.2万颗卫星组成的“星链”网络,其中1584颗将部署在地球上空550千米处的近地轨道,并从2020年开始工作。该卫星仍在工作。
2D轨道图
3D轨道图
轨道高度分析图
轨道倾角分析图
轨道综合分析图
查看轨道综合分析图